Location: Bieujac
(44.5398°N, 0.1549°W)
Time: 08:42:28
(UTC+00:00)

Cosmos 1825 - Pass Details

Date: 17 November 2019
Orbit: 504 x 508 km, 82.5° (Epoch: 06 December)

Event Time Altitude Azimuth Distance (km) Brightness Sun altitude
Rises 05:50:09 0° 196° (SSW) 2,591 5.8 -12.3°
Reaches altitude 10° 05:52:16 10° 200° (SSW) 1,711 4.8 -12.0°
Maximum altitude 05:55:58 59° 280° (W) 589 2.1 -11.3°
Drops below altitude 10° 05:59:43 10° 1° (N) 1,727 4.7 -10.7°
Sets 06:01:53 0° 5° (N) 2,617 5.7 -10.3°
